CW4797 Weather Reports


time (UTC)temp
F
wind
direction
speed
knots
gust
knots
rain 1hr
in
rain 24hr
in
rain mn
in
humidity
%
barometer
mb
20210122070051 22 248 0.0 0.0 0.00 0.00 0.00 89 1002.1
20210122064555 22 248 0.0 0.0 0.00 0.00 0.00 89 1002.2
20210122063054 22 248 0.0 0.0 0.00 0.00 0.00 89 1002.1
20210122061646 22 248 0.0 0.0 0.00 0.00 0.00 88 1002.1
20210122060043 22 248 0.0 0.0 0.00 0.00 0.00 88 1002.1
20210122054553 22 248 0.0 0.0 0.00 0.00 0.00 88 1002.1
20210122053101 23 248 0.0 0.0 0.00 0.00 0.00 87 1002.3
20210122051559 23 248 0.0 0.0 0.00 0.00 0.00 87 1002.4
20210122050044 23 248 0.0 0.0 0.00 0.00 0.00 86 1002.4
20210122044538 23 248 0.0 0.9 0.00 0.00 0.00 86 1002.6
20210122043035 23 248 0.0 1.7 0.00 0.00 0.00 85 1002.8
20210122041532 23 248 0.0 0.0 0.00 0.00 0.00 85 1002.9
20210122040026 23 248 0.0 0.0 0.00 0.00 0.00 84 1003.0
20210122034538 23 248 0.0 0.0 0.00 0.00 0.00 81 1003.0
20210122033020 23 248 0.0 0.0 0.00 0.00 0.00 81 1003.0
20210122031521 23 248 0.0 0.0 0.00 0.00 0.00 80 1003.2
20210122030055 24 248 0.0 0.0 0.00 0.00 0.00 81 1003.2
20210122024516 24 248 0.0 0.0 0.00 0.00 0.00 82 1003.3
20210122023023 24 248 0.0 0.0 0.00 0.00 0.00 81 1003.4
20210122021549 24 248 0.0 0.0 0.00 0.00 0.00 81 1003.4
20210122020023 24 248 0.0 0.0 0.00 0.00 0.00 80 1003.6
20210122014548 24 248 0.0 0.0 0.00 0.00 0.00 80 1003.6
20210122013023 24 248 0.0 0.0 0.00 0.00 0.00 78 1003.8
20210122011705 24 248 0.0 0.0 0.00 0.00 0.00 78 1004.0
20210122010204 24 248 0.0 0.0 0.00 0.00 0.00 78 1004.1
20210122004626 24 248 0.0 0.0 0.00 0.00 0.00 78 1004.1
20210122003217 24 248 0.0 1.7 0.00 0.00 0.00 78 1004.1
20210122001925 24 248 0.0 1.7 0.00 0.00 0.00 77 1004.1
20210122000235 24 248 0.9 1.7 0.00 0.00 0.00 77 1004.0
20210121234714 24 248 0.0 1.7 0.00 0.00 0.00 76 1004.1
20210121233152 24 248 0.0 1.7 0.00 0.00 0.00 76 1004.2
20210121231623 24 248 0.0 0.9 0.00 0.00 0.00 76 1004.2
20210121230225 24 248 0.0 0.9 0.00 0.00 0.00 75 1004.3
20210121224653 24 248 0.0 0.9 0.00 0.00 0.00 75 1004.3
20210121223147 24 248 0.0 1.7 0.00 0.00 0.00 74 1004.3
20210121221657 24 248 0.0 1.7 0.00 0.00 0.00 74 1004.1
20210121220138 24 248 0.9 1.7 0.00 0.00 0.00 73 1004.0
20210121214644 24 248 0.0 1.7 0.00 0.00 0.00 73 1004.0
20210121213124 24 248 0.0 1.7 0.00 0.00 0.00 72 1004.1
20210121211712 24 232 0.0 1.7 0.00 0.00 0.00 72 1004.2
20210121210215 24 284 0.9 3.5 0.00 0.00 0.00 71 1004.3
20210121204613 25 239 0.9 4.3 0.00 0.00 0.00 70 1004.4
20210121203102 25 254 0.9 3.5 0.00 0.00 0.00 70 1004.4
20210121201719 25 254 0.9 5.2 0.00 0.00 0.00 68 1004.5
20210121200044 25 234 0.9 5.2 0.00 0.00 0.00 67 1004.7
20210121194610 25 266 1.7 6.1 0.00 0.00 0.00 66 1004.7
20210121193244 25 337 1.7 4.3 0.00 0.00 0.00 64 1004.8
20210121191556 25 272 0.9 4.3 0.00 0.00 0.00 62 1005.1
20210121190110 25 244 0.9 5.2 0.00 0.00 0.00 61 1005.2
20210121184633 24 235 2.6 3.5 0.00 0.00 0.00 60 1005.3
20210121183059 24 242 1.7 5.2 0.00 0.00 0.00 59 1005.5
20210121181532 24 242 1.7 4.3 0.00 0.00 0.00 58 1005.7
20210121180117 24 236 0.9 3.5 0.00 0.00 0.00 58 1005.8
20210121174544 24 229 0.9 3.5 0.00 0.00 0.00 58 1006.1
20210121173100 24 225 0.9 6.1 0.00 0.00 0.00 56 1006.7
20210121171615 24 274 0.9 4.3 0.00 0.00 0.00 56 1007.0
20210121170028 23 289 1.7 7.0 0.00 0.00 0.00 56 1007.4
20210121164520 22 334 0.9 7.0 0.00 0.00 0.00 57 1007.8
20210121163021 22 201 1.7 5.2 0.00 0.00 0.00 59 1008.0
20210121161521 21 217 1.7 4.3 0.00 0.00 0.00 63 1008.1
20210121160148 21 250 1.7 7.0 0.00 0.00 0.00 63 1008.3
20210121154718 20 204 3.5 7.8 0.00 0.00 0.00 64 1008.8
20210121153118 20 244 0.9 4.3 0.00 0.00 0.00 65 1009.3
20210121151617 19 246 0.9 3.5 0.00 0.00 0.00 66 1009.2
20210121150142 19 257 0.9 4.3 0.00 0.00 0.00 70 1009.2
20210121144610 18 260 0.9 3.5 0.00 0.00 0.00 69 1009.3
20210121143118 17 244 2.6 5.2 0.00 0.00 0.00 69 1009.7
20210121141557 17 249 0.9 2.6 0.00 0.00 0.00 70 1009.9
20210121140044 16 240 0.0 2.6 0.00 0.00 0.00 72 1010.1
20210121134537 16 223 0.9 2.6 0.00 0.00 0.00 74 1009.9
20210121133023 15 286 0.0 1.7 0.00 0.00 0.00 75 1010.5
20210121131533 15 280 0.0 0.9 0.00 0.00 0.00 74 1010.6
20210121130104 14 280 0.0 0.0 0.00 0.00 0.00 74 1010.3
20210121124525 14 280 0.0 0.9 0.00 0.00 0.00 75 1010.6
20210121123023 14 280 0.0 1.7 0.00 0.00 0.00 76 1011.0
20210121121526 14 280 0.0 1.7 0.00 0.00 0.00 75 1011.2
20210121120026 14 280 0.0 0.9 0.00 0.00 0.00 75 1011.0
20210121114526 14 280 0.0 1.7 0.00 0.00 0.00 77 1011.4
20210121113022 14 280 0.0 0.9 0.00 0.00 0.00 75 1011.7
20210121111529 14 280 0.0 0.9 0.00 0.00 0.00 74 1011.3
20210121110019 14 280 0.0 0.9 0.00 0.00 0.00 74 1011.4
20210121104516 14 280 0.0 0.9 0.00 0.00 0.00 73 1011.7
20210121103015 14 280 0.0 0.9 0.00 0.00 0.00 72 1011.7
20210121101510 14 280 0.0 1.7 0.00 0.00 0.00 73 1012.0
20210121100122 14 280 0.0 1.7 0.00 0.00 0.00 73 1012.1
20210121094730 14 280 0.9 1.7 0.00 0.00 0.00 73 1012.2
20210121093251 14 287 0.9 1.7 0.00 0.00 0.00 74 1012.5
20210121091710 14 216 0.0 1.7 0.00 0.00 0.00 74 1012.5
20210121090116 14 216 0.0 1.7 0.00 0.00 0.00 74 1012.7
20210121084709 14 216 0.0 1.7 0.00 0.00 0.00 73 1012.7
20210121083250 14 216 0.0 0.9 0.00 0.00 0.00 73 1013.1
20210121081642 14 216 0.0 1.7 0.00 0.00 0.00 73 1013.4
20210121080135 14 216 0.0 1.7 0.00 0.00 0.00 73 1013.6
20210121074614 14 216 0.0 1.7 0.00 0.00 0.00 72 1013.7
20210121073212 14 67 0.0 1.7 0.00 0.00 0.00 73 1014.0
20210121071654 14 67 0.0 0.9 0.00 0.00 0.00 74 1013.9